Regional Weather Roundup
Issued by NWS

Home | Current Version | Previous Version | Text Only | Print | Product List | Glossary Off
Versions: 1 2 3 4 5 6 7 8 9 10 11 12 13 14 15 16 17 18 19 20 21 22 23 24 25 26 27 28 29 30 31 32 33 34 35 36 37 38 39 40 41 42 43 44 45 46 47 48 49 50

000
ASUS44 KMEG 201210
RWRTN
TENNESSEE HOURLY STATE WEATHER ROUNDUP
NATIONAL WEATHER SERVICE MEMPHIS TN
600 AM CST MON FEB 20 2017

TNZ002-004-019-021-049-052-054-088>092-201300-
WEST TENNESSEE

CITY           SKY/WX    TMP DP  RH WIND       PRES   REMARKS
MEMPHIS INTL   PTCLDY    62  50  64 SE12      30.04F
NWS MEMPHIS      N/A     55 N/A N/A MISG        N/A
JACKSON        MOCLDY    50  48  93 CALM      30.09S
UNION CITY     CLEAR     55  54  94 CALM      30.08R
PARIS          CLEAR     52  48  87 SE9       30.10F
HUNTINGDON     CLEAR     54  50  87 E6        30.09S
$$

TNZ008-025-027-028-033-062-065-066-201300-
NORTH MIDDLE TENNESSEE

CITY           SKY/WX    TMP DP  RH WIND       PRES   REMARKS
NASHVILLE      MOCLDY    48  45  89 NE6       30.17F
PORTLAND       CLEAR     43  43 100 CALM      30.17F FOG
CLARKSVILLE    MOCLDY    48  46  93 E6        30.14S FOG
SMYRNA         MOCLDY    42  42 100 CALM      30.19S
COOKEVILLE     PTCLDY    39  39 100 CALM      30.18F
GALLATIN       CLEAR     43  41  93 CALM      30.20S FOG
CROSSVILLE     CLEAR     39  38  96 CALM      30.21R
$$

TNZ061-075-076-078-094-096-097-201300-
SOUTH MIDDLE TENNESSEE

CITY           SKY/WX    TMP DP  RH WIND       PRES   REMARKS
FAYETTEVILLE   CLEAR     46  45  93 E6        30.15F
TULLAHOMA      CLEAR     43  43 100 CALM      30.18S
WINCHESTER     CLEAR     39  39 100 CALM      30.18S
MCMINNVILLE    CLEAR     43  43 100 CALM      30.18S
COLUMBIA       CLEAR    N/A N/A N/A CALM      30.13F
SHELBYVILLE    CLEAR     48  48 100 E5        30.17F
$$

TNZ017-018-042-046-047-201300-
NORTHEAST TENNESSEE

CITY           SKY/WX    TMP DP  RH WIND       PRES   REMARKS
TRI CITIES     FOG       34  33  96 CALM      30.23R VSB 1/4
ELIZABETHTON   CLOUDY    39  37  93 CALM      30.22R
$$

TNZ012-013-036-069-073-074-201300-
CENTRAL EAST TENNESSEE

CITY           SKY/WX    TMP DP  RH WIND       PRES   REMARKS
KNOXVILLE      CLOUDY    39  37  92 NE3       30.20R
OAK RIDGE      CLOUDY    41  39  93 CALM      30.22R
GATLINBURG     CLEAR     34  32  93 CALM      30.21R
MORRISTOWN     CLEAR     41  41 100 CALM      30.20R FOG
JACKSBORO      FOG       36  36 100 CALM      30.24R VSB 1/4
$$

TNZ083-085-099-201300-
SOUTHEAST TENNESSEE

CITY           SKY/WX    TMP DP  RH WIND       PRES   REMARKS
CHATTANOOGA    MOCLDY    43  41  93 SE5       30.20R
$$

SKY/WX REPORTED AS FAIR MEANS FEW OR NO CLOUDS BELOW
12 THOUSAND FEET.





USA.gov is the U.S. government's official web portal to all federal, state and local government web resources and services.